View from above orbital plane
|
View from above satellite
|
Ground track
|
The orbit data is extracted from the following two-line orbital elements,
1 39026U 12072A 21105.89840404 .00001887 00000-0 66665-4 0 9995
2 39026 97.2434 100.3063 0034128 246.1869 113.5793 15.29917683463461
Epoch (UTC): | 15 April 2021 21:33:42 |
Eccentricity: | 0.0034128 |
inclination: | 97.2434° |
perigee height: | 452 km |
apogee height: | 499 km |
right ascension of ascending node: | 100.3063° |
argument of perigee: | 246.1869° |
revolutions per day: | 15.29917683 |
mean anomaly at epoch: | 113.5793° |
orbit number at epoch: | 46346 |
The dashed part of the orbit path shows where the satellite is in the earth's shadow,
|
|